Umar1 — 9HA2498 — position and weather

sailwx.info

Track history (hours):
 
Tides and Currents Weather Stations Pressure Air Temp Water Temp Dewpoint Dewpoint Depression Visibility Wind Speed Wind Dir Waves Ship Positions

Umar1

Last reported at 2014-Jul-24 07:13 UTC. Time now 2014-Jul-24 19:18 UTC.
Position N 35°59' W 005°20'.

Length 100 m; draft 6.4 m.

Type: Tanker. MMSI: 248751000.

Date/timePositionNaut miles runAvg speedWind from/ knotsBaromVisibWave heightAir tempDewpointWater temp
2014-Jul-24 07:13N 35°59' W 005°20'6911.7
2014-Jul-24 01:19N 35°60' W 006°44'910.8
2014-Jul-24 00:32N 36°02' W 006°55'2110.5
2014-Jul-23 22:33N 36°07' W 007°20'1110.6
2014-Jul-23 21:33N 36°09' W 007°32'1110.9
2014-Jul-23 20:33N 36°12' W 007°46'1110.8
2014-Jul-23 19:33N 36°14' W 007°59'1110.8
2014-Jul-23 18:33N 36°17' W 008°12'1110.9
2014-Jul-23 17:33N 36°19' W 008°25'1110.6
2014-Jul-23 16:33N 36°22' W 008°38'1010.4
2014-Jul-23 15:33N 36°24' W 008°50'1010.3
2014-Jul-23 14:33N 36°26' W 009°03'1110.5
2014-Jul-23 13:32N 36°29' W 009°16'1010.2
2014-Jul-23 12:33N 36°35' W 009°26'1110.8
2014-Jul-23 11:33N 36°43' W 009°35'1010.4
2014-Jul-23 10:33N 36°52' W 009°40'1010.5
2014-Jul-23 09:33N 37°03' W 009°43'1110.9
2014-Jul-23 08:33N 37°13' W 009°46'1110.7
2014-Jul-23 07:33N 37°24' W 009°49'1110.8
2014-Jul-23 06:33N 37°34' W 009°52'1110.8
2014-Jul-23 05:33N 37°45' W 009°55'1110.6
2014-Jul-23 04:32N 37°55' W 009°59'1110.9
2014-Jul-23 03:33N 38°06' W 010°02'1111.2
2014-Jul-23 02:33N 38°17' W 010°05'1111.0
2014-Jul-23 01:32N 38°27' W 010°08'1010.5
2014-Jul-23 00:32N 38°38' W 010°11'1111.0
2014-Jul-22 23:33N 38°48' W 010°12'1411.3
2014-Jul-22 22:20N 39°02' W 010°12'911.4
2014-Jul-22 21:32N 39°11' W 010°12'1211.1
2014-Jul-22 20:27N 39°23' W 010°12'1011.2
2014-Jul-22 19:33N 39°33' W 010°12'1110.9
2014-Jul-22 18:33N 39°44' W 010°12'1411.2
2014-Jul-22 17:20N 39°58' W 010°12'911.1
2014-Jul-22 16:33N 40°07' W 010°12'1111.4
2014-Jul-22 15:33N 40°18' W 010°12'  
2014-Jul-19 11:25N 50°33' E 000°17'1011.4
2014-Jul-19 10:33N 50°36' E 000°32'1212.2
2014-Jul-19 09:33N 50°42' E 000°48'2411.4
2014-Jul-19 07:29N 50°55' E 001°19'9 9.6
2014-Jul-19 06:34N 51°02' E 001°29'8 8.2
2014-Jul-19 05:33N 51°08' E 001°37'8 8.4
2014-Jul-19 04:33N 51°14' E 001°47'10 9.7
2014-Jul-19 03:33N 51°23' E 001°54'1111.2
2014-Jul-19 02:33N 51°32' E 002°04'1312.7
2014-Jul-19 01:33N 51°41' E 002°18'1312.9
2014-Jul-19 00:33N 51°51' E 002°32'2410.8
2014-Jul-18 22:18N 52°03' E 003°06'2910.7
2014-Jul-18 19:33N 52°03' E 003°54'1010.2
2014-Jul-18 18:34N 51°58' E 004°08'3 1.4
2014-Jul-18 16:30N 51°56' E 004°12'0 0.0
2014-Jul-18 15:30N 51°56' E 004°12'0 0.0
2014-Jul-18 13:18N 51°56' E 004°12'0 0.0
2014-Jul-18 12:15N 51°56' E 004°12'0 0.0
2014-Jul-18 11:27N 51°56' E 004°12'0 0.0
2014-Jul-18 04:21N 51°56' E 004°12'0 0.0
2014-Jul-17 08:21N 51°56' E 004°12'0 0.0
2014-Jul-17 06:27N 51°56' E 004°12'0 0.0
2014-Jul-17 04:09N 51°56' E 004°12'0 0.0
2014-Jul-17 03:18N 51°56' E 004°12'0 0.0
2014-Jul-16 19:21N 51°56' E 004°12'0 0.0
2014-Jul-16 17:21N 51°56' E 004°12'0 0.0
2014-Jul-16 12:27N 51°56' E 004°12'0 0.0
2014-Jul-16 11:15N 51°56' E 004°12'0 0.0
2014-Jul-16 07:30N 51°56' E 004°12'0 0.0
2014-Jul-16 06:33N 51°56' E 004°12'0 0.0
2014-Jul-16 05:33N 51°56' E 004°12'0 0.0
2014-Jul-16 04:33N 51°56' E 004°12'0 0.0
2014-Jul-16 03:33N 51°56' E 004°12'0 0.0
2014-Jul-16 02:33N 51°56' E 004°12'0 0.0
2014-Jul-16 01:33N 51°56' E 004°12'0 0.0
2014-Jul-16 00:33N 51°56' E 004°12'0 0.0
2014-Jul-15 23:33N 51°56' E 004°12'0 0.0
2014-Jul-15 22:33N 51°56' E 004°12'0 0.0
2014-Jul-15 21:33N 51°56' E 004°12'0 0.0
2014-Jul-15 20:33N 51°56' E 004°12'0 0.0
2014-Jul-15 19:33N 51°56' E 004°12'0 0.0
2014-Jul-15 18:33N 51°56' E 004°12'0 0.0
2014-Jul-15 17:33N 51°56' E 004°12'0 0.0
2014-Jul-15 16:33N 51°56' E 004°12'0 0.0
2014-Jul-15 15:33N 51°56' E 004°12'0 0.0
2014-Jul-15 14:33N 51°56' E 004°12'0 0.0
2014-Jul-15 13:33N 51°56' E 004°12'0 0.0
2014-Jul-15 12:33N 51°56' E 004°12'0 0.0
2014-Jul-15 11:33N 51°56' E 004°12'0 0.0
2014-Jul-15 10:34N 51°56' E 004°12'0 0.0
2014-Jul-15 09:33N 51°56' E 004°12'0 0.0
2014-Jul-15 08:33N 51°56' E 004°12'0 0.0
2014-Jul-15 07:33N 51°56' E 004°12'0 0.0
2014-Jul-15 06:33N 51°56' E 004°12'0 0.0
2014-Jul-15 05:33N 51°56' E 004°12'0 0.0
2014-Jul-15 04:33N 51°56' E 004°12'0 0.0
2014-Jul-15 03:33N 51°56' E 004°12'0 0.0
2014-Jul-15 02:33N 51°56' E 004°12'0 0.0
2014-Jul-15 01:33N 51°56' E 004°12'0 0.0
2014-Jul-15 00:33N 51°56' E 004°12'0 0.0
2014-Jul-14 23:33N 51°56' E 004°12'0 0.0
2014-Jul-14 22:33N 51°56' E 004°12'0 0.0
2014-Jul-14 21:33N 51°56' E 004°12'0 0.0
2014-Jul-14 20:33N 51°56' E 004°12'0 0.0
2014-Jul-14 19:33N 51°56' E 004°12'0 0.0
2014-Jul-14 18:33N 51°56' E 004°12'0 0.0
2014-Jul-14 17:33N 51°56' E 004°12'0 0.0
2014-Jul-14 16:33N 51°56' E 004°12'0 0.0
2014-Jul-14 15:33N 51°56' E 004°12'0 0.0
2014-Jul-14 14:33N 51°56' E 004°12'0 0.0
2014-Jul-14 13:33N 51°56' E 004°12'0 0.0
2014-Jul-14 12:33N 51°56' E 004°12'0 0.0
2014-Jul-14 11:33N 51°56' E 004°12'0 0.0
2014-Jul-14 10:33N 51°56' E 004°12'0 0.0
2014-Jul-14 09:33N 51°56' E 004°12'0 0.0
2014-Jul-14 08:33N 51°56' E 004°12'0 0.0
2014-Jul-14 07:33N 51°56' E 004°12'  
Track history (hours):
 
Tides and Currents Weather Stations Pressure Air Temp Water Temp Dewpoint Dewpoint Depression Visibility Wind Speed Wind Dir Waves Ship Positions

Umar1

Last reported at 2014-Jul-24 07:13 UTC. Time now 2014-Jul-24 19:18 UTC.
Position N 35°59' W 005°20'.

Length 100 m; draft 6.4 m.

Type: Tanker. MMSI: 248751000.

Date/timePositionNaut miles runAvg speedWind from/ knotsBaromVisibWave heightAir tempDewpointWater temp
2014-Jul-24 07:13N 35°59' W 005°20'6911.7
2014-Jul-24 01:19N 35°60' W 006°44'910.8
2014-Jul-24 00:32N 36°02' W 006°55'2110.5
2014-Jul-23 22:33N 36°07' W 007°20'1110.6
2014-Jul-23 21:33N 36°09' W 007°32'1110.9
2014-Jul-23 20:33N 36°12' W 007°46'1110.8
2014-Jul-23 19:33N 36°14' W 007°59'1110.8
2014-Jul-23 18:33N 36°17' W 008°12'1110.9
2014-Jul-23 17:33N 36°19' W 008°25'1110.6
2014-Jul-23 16:33N 36°22' W 008°38'1010.4
2014-Jul-23 15:33N 36°24' W 008°50'1010.3
2014-Jul-23 14:33N 36°26' W 009°03'1110.5
2014-Jul-23 13:32N 36°29' W 009°16'1010.2
2014-Jul-23 12:33N 36°35' W 009°26'1110.8
2014-Jul-23 11:33N 36°43' W 009°35'1010.4
2014-Jul-23 10:33N 36°52' W 009°40'1010.5
2014-Jul-23 09:33N 37°03' W 009°43'1110.9
2014-Jul-23 08:33N 37°13' W 009°46'1110.7
2014-Jul-23 07:33N 37°24' W 009°49'1110.8
2014-Jul-23 06:33N 37°34' W 009°52'1110.8
2014-Jul-23 05:33N 37°45' W 009°55'1110.6
2014-Jul-23 04:32N 37°55' W 009°59'1110.9
2014-Jul-23 03:33N 38°06' W 010°02'1111.2
2014-Jul-23 02:33N 38°17' W 010°05'1111.0
2014-Jul-23 01:32N 38°27' W 010°08'1010.5
2014-Jul-23 00:32N 38°38' W 010°11'1111.0
2014-Jul-22 23:33N 38°48' W 010°12'1411.3
2014-Jul-22 22:20N 39°02' W 010°12'911.4
2014-Jul-22 21:32N 39°11' W 010°12'1211.1
2014-Jul-22 20:27N 39°23' W 010°12'1011.2
2014-Jul-22 19:33N 39°33' W 010°12'1110.9
2014-Jul-22 18:33N 39°44' W 010°12'1411.2
2014-Jul-22 17:20N 39°58' W 010°12'911.1
2014-Jul-22 16:33N 40°07' W 010°12'1111.4
2014-Jul-22 15:33N 40°18' W 010°12'  
2014-Jul-19 11:25N 50°33' E 000°17'1011.4
2014-Jul-19 10:33N 50°36' E 000°32'1212.2
2014-Jul-19 09:33N 50°42' E 000°48'2411.4
2014-Jul-19 07:29N 50°55' E 001°19'9 9.6
2014-Jul-19 06:34N 51°02' E 001°29'8 8.2
2014-Jul-19 05:33N 51°08' E 001°37'8 8.4
2014-Jul-19 04:33N 51°14' E 001°47'10 9.7
2014-Jul-19 03:33N 51°23' E 001°54'1111.2
2014-Jul-19 02:33N 51°32' E 002°04'1312.7
2014-Jul-19 01:33N 51°41' E 002°18'1312.9
2014-Jul-19 00:33N 51°51' E 002°32'2410.8
2014-Jul-18 22:18N 52°03' E 003°06'2910.7
2014-Jul-18 19:33N 52°03' E 003°54'1010.2
2014-Jul-18 18:34N 51°58' E 004°08'3 1.4
2014-Jul-18 16:30N 51°56' E 004°12'0 0.0
2014-Jul-18 15:30N 51°56' E 004°12'0 0.0
2014-Jul-18 13:18N 51°56' E 004°12'0 0.0
2014-Jul-18 12:15N 51°56' E 004°12'0 0.0
2014-Jul-18 11:27N 51°56' E 004°12'0 0.0
2014-Jul-18 04:21N 51°56' E 004°12'0 0.0
2014-Jul-17 08:21N 51°56' E 004°12'0 0.0
2014-Jul-17 06:27N 51°56' E 004°12'0 0.0
2014-Jul-17 04:09N 51°56' E 004°12'0 0.0
2014-Jul-17 03:18N 51°56' E 004°12'0 0.0
2014-Jul-16 19:21N 51°56' E 004°12'0 0.0
2014-Jul-16 17:21N 51°56' E 004°12'0 0.0
2014-Jul-16 12:27N 51°56' E 004°12'0 0.0
2014-Jul-16 11:15N 51°56' E 004°12'0 0.0
2014-Jul-16 07:30N 51°56' E 004°12'0 0.0
2014-Jul-16 06:33N 51°56' E 004°12'0 0.0
2014-Jul-16 05:33N 51°56' E 004°12'0 0.0
2014-Jul-16 04:33N 51°56' E 004°12'0 0.0
2014-Jul-16 03:33N 51°56' E 004°12'0 0.0
2014-Jul-16 02:33N 51°56' E 004°12'0 0.0
2014-Jul-16 01:33N 51°56' E 004°12'0 0.0
2014-Jul-16 00:33N 51°56' E 004°12'0 0.0
2014-Jul-15 23:33N 51°56' E 004°12'0 0.0
2014-Jul-15 22:33N 51°56' E 004°12'0 0.0
2014-Jul-15 21:33N 51°56' E 004°12'0 0.0
2014-Jul-15 20:33N 51°56' E 004°12'0 0.0
2014-Jul-15 19:33N 51°56' E 004°12'0 0.0
2014-Jul-15 18:33N 51°56' E 004°12'0 0.0
2014-Jul-15 17:33N 51°56' E 004°12'0 0.0
2014-Jul-15 16:33N 51°56' E 004°12'0 0.0
2014-Jul-15 15:33N 51°56' E 004°12'0 0.0
2014-Jul-15 14:33N 51°56' E 004°12'0 0.0
2014-Jul-15 13:33N 51°56' E 004°12'0 0.0
2014-Jul-15 12:33N 51°56' E 004°12'0 0.0
2014-Jul-15 11:33N 51°56' E 004°12'0 0.0
2014-Jul-15 10:34N 51°56' E 004°12'0 0.0
2014-Jul-15 09:33N 51°56' E 004°12'0 0.0
2014-Jul-15 08:33N 51°56' E 004°12'0 0.0
2014-Jul-15 07:33N 51°56' E 004°12'0 0.0
2014-Jul-15 06:33N 51°56' E 004°12'0 0.0
2014-Jul-15 05:33N 51°56' E 004°12'0 0.0
2014-Jul-15 04:33N 51°56' E 004°12'0 0.0
2014-Jul-15 03:33N 51°56' E 004°12'0 0.0
2014-Jul-15 02:33N 51°56' E 004°12'0 0.0
2014-Jul-15 01:33N 51°56' E 004°12'0 0.0
2014-Jul-15 00:33N 51°56' E 004°12'0 0.0
2014-Jul-14 23:33N 51°56' E 004°12'0 0.0
2014-Jul-14 22:33N 51°56' E 004°12'0 0.0
2014-Jul-14 21:33N 51°56' E 004°12'0 0.0
2014-Jul-14 20:33N 51°56' E 004°12'0 0.0
2014-Jul-14 19:33N 51°56' E 004°12'0 0.0
2014-Jul-14 18:33N 51°56' E 004°12'0 0.0
2014-Jul-14 17:33N 51°56' E 004°12'0 0.0
2014-Jul-14 16:33N 51°56' E 004°12'0 0.0
2014-Jul-14 15:33N 51°56' E 004°12'0 0.0
2014-Jul-14 14:33N 51°56' E 004°12'0 0.0
2014-Jul-14 13:33N 51°56' E 004°12'0 0.0
2014-Jul-14 12:33N 51°56' E 004°12'0 0.0
2014-Jul-14 11:33N 51°56' E 004°12'0 0.0
2014-Jul-14 10:33N 51°56' E 004°12'0 0.0
2014-Jul-14 09:33N 51°56' E 004°12'0 0.0
2014-Jul-14 08:33N 51°56' E 004°12'0 0.0
2014-Jul-14 07:33N 51°56' E 004°12'  

Dump ship's entire track history